الصفحة الرئيسية
METAR-TAF:

METAR-TAF

مطار :

ليك هافاسو سيتي, أريزونا, الولايات المتحدة

دائرة عرض: 34-34-16N, خط طول: 114-21-30W, ارتفاع: 239 متر

مراقبة الطقس الحالي

تاريخ ووقت الإصدار 13 دقيقة قبل الساعة 23:55UTC
ريح 8 عقدة من الجنوب
درجة الحرارة 16°درجة مئوية
الرطوبة 55%
ضغط 1002 hPa
الرؤية: 16.1 كم
سماء صافية

METAR: KHII 202355Z AUTO 19008KT 10SM CLR 16/07 A2958 RMK AO2

زمن: 17:08 (00:08 UTC)


TAF: مفقودة

أرصاد الطقس والتوقعات من أكثر من 4000 مطار (تقارير الطقس للمطار METAR والتنبؤ بالطقس بالمطارTAF).

المحطات المتاحة هي النقط الصفراء والحمراء على الخريطة.

حرك المؤشر فوق النقطة لمعرفة اسم المحطة.

ثم انقر لمعرفة أرصاد وتوقعات الطقس.

لتغيير الخارطة: اضغط على الأزرار الخضراء مع رمز الصليب الأسود للتكبير. على الزر الأخضر مع شرطة للتصغير، أو على الأسهم الخضراء للخرائط المجاورة.


METAR-TAF: